| time (UTC) | temp C | wind direction | speed KPH | gust KPH | rain 1hr cm | rain 24hr cm | rain mn cm | humidity % | barometer mb |
| 20260504110523 | 20 | 309 | 9.7 | 20.9 | 0.00 | 0.00 | 0.00 | 55 | 1011.2 |
| 20260504100550 | 21 | 249 | 11.3 | 25.7 | 0.00 | 0.00 | 0.00 | 55 | 1011.2 |
| 20260504081556 | 18 | 240 | 8.0 | 17.7 | 0.00 | 0.00 | 0.00 | 65 | 1010.8 |
| 20260504080615 | 18 | 242 | 8.0 | 14.5 | 0.00 | 0.00 | 0.00 | 68 | 1010.8 |
| 20260504050516 | -17 | 160 | 4.8 | 9.7 | 0.00 | 0.00 | 0.00 | 1009.8 | |
| 20260504045615 | -17 | 113 | 3.2 | 6.4 | 0.00 | 0.00 | 0.00 | 1009.6 | |
| 20260504044607 | -17 | 113 | 3.2 | 6.4 | 0.00 | 0.00 | 0.00 | 1009.5 | |
| 20260504043602 | -17 | 113 | 3.2 | 6.4 | 0.00 | 0.00 | 0.00 | 1009.5 | |
| 20260504042601 | -17 | 113 | 1.6 | 3.2 | 0.00 | 0.00 | 0.00 | 1009.7 | |
| 20260504041553 | -17 | 113 | 3.2 | 9.7 | 0.00 | 0.00 | 0.00 | 1009.7 | |
| 20260504040547 | -17 | 113 | 4.8 | 11.3 | 0.00 | 0.00 | 0.00 | 1009.7 | |
| 20260504035545 | -17 | 113 | 1.6 | 3.2 | 0.00 | 0.00 | 0.00 | 1009.6 | |
| 20260504034537 | -17 | 113 | 1.6 | 6.4 | 0.00 | 0.00 | 0.00 | 1009.5 | |
| 20260504033532 | -17 | 113 | 0.0 | 3.2 | 0.00 | 0.00 | 0.00 | 1009.4 | |
| 20260504032528 | -17 | 113 | 3.2 | 6.4 | 0.00 | 0.00 | 0.00 | 1009.4 | |
| 20260504031523 | -17 | 113 | 3.2 | 6.4 | 0.00 | 0.00 | 0.00 | 1009.2 | |
| 20260504030517 | -17 | 113 | 1.6 | 6.4 | 0.00 | 0.00 | 0.00 | 1009.0 | |
| 20260504025611 | -17 | 113 | 1.6 | 6.4 | 0.00 | 0.00 | 0.00 | 1009.0 | |
| 20260504024605 | -17 | 113 | 3.2 | 6.4 | 0.00 | 0.00 | 0.00 | 1009.0 | |
| 20260504023559 | -17 | 113 | 4.8 | 9.7 | 0.00 | 0.00 | 0.00 | 1009.1 | |
| 20260504022554 | -17 | 113 | 4.8 | 6.4 | 0.00 | 0.00 | 0.00 | 1009.4 | |
| 20260504021549 | -17 | 113 | 6.4 | 14.5 | 0.00 | 0.00 | 0.00 | 1009.2 | |
| 20260504020544 | -17 | 113 | 4.8 | 12.9 | 0.00 | 0.00 | 0.00 | 1009.1 | |
| 20260504015539 | -17 | 113 | 8.0 | 14.5 | 0.00 | 0.00 | 0.00 | 1009.2 | |
| 20260504014535 | -17 | 113 | 6.4 | 14.5 | 0.00 | 0.00 | 0.00 | 1009.0 | |
| 20260504013529 | -17 | 113 | 3.2 | 9.7 | 0.00 | 0.00 | 0.00 | 1008.9 | |
| 20260504012523 | -17 | 113 | 3.2 | 9.7 | 0.00 | 0.00 | 0.00 | 1009.0 | |
| 20260504011518 | -17 | 113 | 4.8 | 9.7 | 0.00 | 0.00 | 0.00 | 1008.8 | |
| 20260504010614 | -17 | 113 | 3.2 | 9.7 | 0.00 | 0.00 | 0.00 | 1009.0 | |
| 20260504005610 | -17 | 113 | 4.8 | 11.3 | 0.00 | 0.00 | 0.00 | 1008.9 | |
| 20260504004605 | -17 | 113 | 4.8 | 9.7 | 0.00 | 0.00 | 0.00 | 1009.0 | |
| 20260504003601 | -17 | 113 | 4.8 | 11.3 | 0.00 | 0.00 | 0.00 | 1009.0 | |
| 20260504002556 | -17 | 113 | 4.8 | 6.4 | 0.00 | 0.00 | 0.00 | 1009.0 | |
| 20260504001551 | -17 | 113 | 4.8 | 12.9 | 0.00 | 0.00 | 0.00 | 1008.9 | |
| 20260504000545 | -17 | 113 | 6.4 | 12.9 | 0.00 | 0.00 | 0.00 | 1008.9 | |
| 20260503235600 | -17 | 113 | 6.4 | 12.9 | 0.00 | 0.00 | 0.00 | 1008.9 | |
| 20260503234534 | -17 | 113 | 9.7 | 17.7 | 0.00 | 0.00 | 0.00 | 1009.0 | |
| 20260503233553 | -17 | 113 | 6.4 | 17.7 | 0.00 | 0.00 | 0.00 | 1009.1 | |
| 20260503232525 | -17 | 113 | 4.8 | 11.3 | 0.00 | 0.00 | 0.00 | 1008.9 | |
| 20260503231523 | -17 | 113 | 4.8 | 6.4 | 0.00 | 0.00 | 0.00 | 1008.8 | |
| 20260503230615 | -17 | 113 | 4.8 | 12.9 | 0.00 | 0.00 | 0.00 | 1008.9 | |
| 20260503225609 | -17 | 113 | 3.2 | 6.4 | 0.00 | 0.00 | 0.00 | 1008.7 | |
| 20260503224603 | -17 | 113 | 3.2 | 6.4 | 0.00 | 0.00 | 0.00 | 1008.5 | |
| 20260503223557 | -17 | 113 | 4.8 | 12.9 | 0.00 | 0.00 | 0.00 | 1008.7 |